Wind_Speed
21 22 22 23 23 23 23 23 23 22 22 22 21 19 17 14 13 13 13 13 15 17 21 24 27 29 31 35 37 38 39 40 39 42 43 42 43 43 43 43 42 41 40
21 22 22 22 23 23 23 23 23 22 22 22 22 21 19 17 15 14 13 13 13 14 17 20 24 27 29 32 35 36 38 39 40 41 42 42 42 42 43 44 44 43 42
22 22 22 22 23 23 23 23 23 22 22 22 22 22 20 19 17 16 15 13 12 12 13 16 19 23 27 29 31 34 36 37 38 40 41 42 42 42 42 43 44 43 42
22 22 22 22 23 23 23 23 23 23 23 23 23 22 21 20 19 17 16 14 13 12 12 13 15 19 23 26 28 31 33 35 37 38 40 41 41 43 42 43 43 43 43
21 22 22 23 23 23 23 23 23 23 23 23 23 22 22 21 20 18 17 15 13 12 11 11 12 15 18 22 25 27 30 32 34 36 38 40 41 41 42 42 43 43 43
22 22 23 23 23 23 23 23 23 23 23 23 23 22 22 21 21 19 18 16 14 11 10 9 10 12 15 18 22 25 27 29 31 33 35 38 39 39 40 42 42 42 42
23 23 23 23 23 23 23 23 23 23 23 23 23 22 21 21 20 19 18 16 14 12 10 9 9 10 12 14 18 22 25 27 29 31 32 35 37 39 39 40 41 42 42
23 24 24 24 24 23 23 23 23 23 23 23 23 22 21 20 20 19 18 16 14 12 11 10 9 9 11 13 16 19 22 25 27 29 30 33 35 36 37 38 39 40 41
24 25 25 24 24 24 23 23 23 23 23 23 23 22 22 20 19 18 18 16 15 14 12 11 10 10 10 12 13 16 19 23 25 27 29 30 33 34 36 37 39 40 40
25 26 26 25 24 24 23 23 23 23 23 22 22 22 22 21 20 19 17 16 16 15 13 12 11 11 11 11 12 14 16 19 22 24 27 28 31 33 35 36 38 39 40
26 26 26 26 25 24 23 23 23 23 23 22 22 22 22 21 21 19 18 17 16 15 15 14 13 12 12 12 12 13 15 17 19 22 24 26 28 30 33 35 37 38 38
27 27 27 26 26 25 24 24 23 23 23 23 22 22 22 22 21 20 19 18 17 16 16 15 14 13 13 13 13 13 14 16 18 19 22 25 27 28 30 32 34 36 37
28 28 27 27 26 26 25 25 24 24 23 23 23 23 22 22 22 21 20 19 18 17 17 16 16 15 15 14 14 14 14 15 17 18 20 22 24 26 28 30 31 32 33
29 29 28 27 27 27 26 25 25 24 24 23 23 23 23 23 22 22 22 21 21 20 19 18 17 17 16 16 16 16 16 16 17 18 19 21 23 24 26 28 30 30 31
30 30 29 28 28 27 27 26 26 25 24 23 23 23 23 23 23 23 22 22 22 22 21 20 20 19 19 18 18 18 18 18 18 18 20 21 22 23 24 26 29 30 31
31 31 30 30 29 28 28 27 26 26 25 25 24 24 24 24 24 23 23 23 23 24 23 23 22 22 21 21 21 21 21 21 20 20 21 22 23 24 25 26 28 29 30
33 32 31 30 30 28 28 28 28 28 27 26 26 26 26 26 26 25 25 26 26 26 26 25 25 25 24 24 24 23 23 23 23 23 23 24 24 25 26 27 28 28 29
33 33 32 31 30 29 29 28 28 29 29 29 29 29 29 29 29 28 28 28 28 28 28 28 28 28 27 27 26 26 26 26 26 25 25 25 25 26 26 27 28 28 29
34 33 32 32 31 31 31 30 30 29 30 30 31 31 31 31 31 31 31 31 31 31 31 31 31 31 31 30 30 30 29 29 28 28 28 28 27 28 28 28 28 29 29
35 34 33 33 33 32 32 32 31 31 31 31 32 32 32 33 34 34 34 34 35 35 35 35 35 35 34 34 34 33 33 33 32 32 31 31 30 30 30 30 30 30 30
36 35 34 34 34 34 34 33 33 33 33 33 34 34 34 35 35 36 37 37 38 38 38 38 38 38 38 38 38 38 37 37 36 35 34 34 33 33 33 33 32 32 31
37 36 35 35 35 35 35 34 34 35 35 36 36 37 37 38 38 39 40 40 41 41 41 41 41 41 41 41 41 41 41 41 41 39 38 37 37 36 35 34 34 34 34
38 37 37 37 37 36 36 36 36 36 37 38 38 39 40 41 42 42 43 43 44 44 44 44 45 45 45 45 45 45 45 45 45 44 43 42 41 39 38 38 37 37 36
39 38 38 38 38 37 37 37 38 38 39 40 41 41 42 43 44 45 46 46 47 47 48 49 49 49 50 50 50 49 49 49 49 49 48 46 46 44 43 41 41 40 39
40 40 39 39 39 38 38 39 40 40 41 41 43 44 44 45 46 48 49 50 50 51 52 53 53 54 53 53 53 52 52 52 52 52 52 51 50 49 48 46 45 43 42
41 40 40 40 39 39 40 40 41 41 42 43 45 46 47 48 49 51 52 53 54 55 56 57 57 57 57 56 56 56 55 55 55 54 54 54 54 52 52 50 48 47 46
Wind_Direction
357 358 360 1 3 3 3 2 2 1 1 0 359 356 350 342 332 318 305 290 274 261 251 245 240 237 234 233 231 230 230 230 229 230 231 230 230 230 230 230 231 234 235
354 355 357 358 360 0 0 360 359 358 359 359 358 356 353 347 340 331 320 306 289 274 261 251 243 238 235 233 232 231 231 231 230 230 232 232 232 232 232 232 231 233 234
352 353 354 355 356 357 358 358 358 357 357 357 356 356 355 351 345 338 330 319 304 288 273 258 248 240 235 233 233 232 231 231 231 230 231 233 234 234 234 233 232 233 234
349 350 351 352 353 354 355 355 356 356 356 355 355 356 355 352 348 343 337 327 316 302 286 269 255 245 237 234 234 233 232 232 233 232 232 234 235 235 235 234 233 234 235
346 347 348 349 350 350 351 352 353 353 353 353 353 354 355 355 352 348 344 337 327 314 298 282 265 252 242 236 234 233 233 234 234 234 234 235 236 237 236 235 235 236 235
343 344 345 345 345 346 347 349 349 350 351 351 352 352 353 353 354 352 349 345 338 328 312 297 278 262 251 243 240 237 236 236 236 236 236 237 237 238 238 237 236 235 235
342 342 341 341 342 342 344 345 347 348 349 349 349 351 351 351 352 352 351 349 346 339 324 308 290 273 261 252 247 244 240 240 240 239 238 237 237 238 238 238 238 237 236
338 338 338 338 338 339 340 342 344 345 346 348 349 349 349 349 348 349 350 350 349 344 335 322 305 287 276 264 256 250 245 243 242 240 238 238 237 238 239 240 239 238 237
333 334 335 335 335 335 336 337 339 340 342 344 346 347 348 347 346 346 347 346 345 342 336 327 314 299 289 278 266 257 251 248 245 243 241 241 239 240 240 241 241 241 240
330 330 330 331 331 331 332 333 335 336 338 340 342 344 345 345 345 344 343 342 341 341 337 332 323 311 299 289 280 269 259 254 251 248 244 243 242 240 240 241 241 242 243
328 327 327 327 327 328 328 329 330 332 333 336 338 340 341 342 343 343 342 339 337 336 333 328 322 315 308 300 291 277 265 260 258 253 249 247 246 244 242 243 243 243 244
325 325 325 325 325 325 325 326 326 327 329 331 332 334 335 337 338 339 338 337 335 331 329 325 320 314 309 305 297 286 275 268 264 259 254 251 250 249 247 245 244 244 244
322 322 322 323 323 323 322 322 322 323 324 325 327 328 329 331 332 332 332 332 330 327 324 321 317 312 305 301 298 292 285 277 270 264 258 255 254 254 251 248 247 246 245
318 319 319 319 320 320 319 318 318 318 319 320 322 324 325 325 326 326 326 326 325 324 321 317 314 311 305 299 295 292 288 282 275 269 263 258 257 255 253 250 249 249 248
316 316 315 315 315 315 315 315 315 316 316 316 317 318 319 320 320 321 321 321 321 320 318 315 311 308 305 300 296 292 289 284 278 274 268 262 259 257 254 253 251 250 249
313 313 312 312 312 312 312 312 312 313 313 313 313 314 314 315 315 315 316 316 316 316 315 312 309 305 301 299 296 292 289 284 280 276 272 267 262 259 256 254 254 254 252
311 311 310 309 309 309 309 310 310 311 311 311 311 312 312 312 312 312 312 311 311 311 311 309 307 304 301 296 293 291 287 284 280 277 273 270 266 262 259 257 255 254 253
309 308 308 307 307 306 306 307 307 307 307 308 308 309 309 309 309 309 309 308 308 307 306 305 303 302 299 295 292 291 288 283 279 276 274 271 268 264 261 260 258 254 253
307 306 305 305 305 304 304 304 303 302 302 303 305 305 306 306 306 306 306 305 304 303 302 301 299 298 296 294 292 288 286 283 280 277 273 270 269 265 262 260 259 258 255
304 303 303 303 303 303 302 302 302 301 301 301 302 303 304 304 304 305 304 303 302 301 299 298 296 295 293 291 289 287 284 280 277 275 272 269 267 265 263 260 258 257 255
301 301 301 301 301 301 301 300 300 300 300 300 301 301 302 302 302 302 302 301 300 299 298 297 296 293 291 289 286 284 282 279 276 273 271 269 267 264 262 259 257 255 253
299 299 299 300 300 299 299 299 298 299 299 300 300 301 301 301 301 301 301 300 299 299 298 297 295 293 291 288 285 282 279 277 275 272 269 267 265 263 261 259 256 254 252
296 297 298 299 298 298 297 297 298 298 299 299 300 301 301 301 302 301 301 301 300 299 298 296 295 293 291 289 287 283 279 275 273 270 267 265 262 260 259 257 255 253 252
294 295 296 297 296 296 296 296 297 298 298 299 300 301 301 301 301 301 301 301 300 298 297 296 295 293 290 288 285 282 279 275 271 268 265 262 259 257 255 254 252 251 250
292 293 294 295 295 294 295 296 297 298 298 299 300 301 301 301 301 302 301 301 300 299 298 296 295 293 290 287 284 281 278 274 270 267 263 259 256 253 251 250 248 247 247
290 291 292 293 293 293 294 295 297 298 299 300 301 301 302 302 302 302 302 302 301 300 298 297 295 293 290 287 283 280 277 273 269 266 262 258 254 251 248 247 245 244 243
Height
5811 5807 5802 5798 5793 5789 5784 5780 5775 5771 5767 5763 5758 5754 5751 5747 5745 5743 5741 5740 5739 5739 5739 5740 5742 5744 5747 5750 5755 5759 5764 5769 5774 5778 5782 5787 5792 5797 5801 5805 5809 5813 5816
5810 5806 5802 5797 5793 5789 5784 5780 5775 5771 5766 5762 5757 5753 5749 5745 5742 5739 5737 5735 5734 5733 5733 5734 5735 5737 5739 5743 5747 5751 5755 5760 5765 5769 5773 5778 5783 5787 5791 5796 5800 5804 5807
5809 5805 5801 5797 5793 5788 5784 5779 5774 5770 5765 5761 5756 5752 5748 5744 5740 5736 5733 5731 5729 5728 5728 5728 5728 5730 5732 5735 5739 5743 5747 5751 5756 5761 5765 5769 5773 5778 5782 5786 5790 5795 5799
5808 5804 5800 5796 5792 5787 5783 5778 5774 5769 5764 5760 5755 5751 5746 5742 5738 5734 5730 5727 5725 5724 5723 5723 5723 5724 5725 5728 5732 5735 5739 5743 5748 5752 5756 5760 5764 5768 5773 5777 5781 5785 5789
5807 5803 5799 5795 5790 5786 5782 5777 5773 5768 5763 5759 5754 5750 5745 5740 5736 5732 5728 5725 5722 5721 5719 5718 5718 5719 5720 5722 5725 5729 5732 5736 5739 5743 5747 5751 5755 5759 5763 5767 5771 5775 5779
5805 5801 5797 5793 5789 5785 5780 5776 5771 5767 5762 5757 5753 5748 5744 5739 5735 5731 5727 5723 5720 5718 5717 5716 5715 5715 5716 5718 5720 5722 5725 5728 5732 5735 5738 5742 5746 5750 5753 5757 5761 5765 5770
5803 5799 5795 5791 5787 5782 5778 5774 5770 5765 5761 5756 5751 5747 5742 5738 5734 5730 5726 5722 5719 5717 5715 5714 5713 5713 5713 5714 5715 5717 5719 5721 5724 5727 5730 5733 5737 5740 5744 5747 5751 5754 5759
5800 5796 5792 5788 5784 5780 5776 5772 5768 5763 5759 5754 5750 5745 5741 5737 5733 5729 5725 5722 5719 5716 5714 5712 5711 5710 5710 5710 5711 5712 5713 5715 5717 5720 5723 5725 5727 5730 5734 5738 5741 5744 5748
5797 5793 5789 5785 5781 5777 5773 5769 5765 5761 5757 5753 5748 5744 5740 5736 5732 5728 5724 5721 5718 5716 5713 5711 5709 5708 5707 5707 5707 5707 5708 5709 5710 5712 5715 5717 5719 5722 5725 5728 5731 5734 5738
5793 5789 5785 5782 5778 5774 5770 5766 5763 5759 5755 5751 5747 5742 5738 5734 5730 5727 5723 5720 5717 5714 5712 5710 5708 5706 5705 5704 5703 5703 5703 5704 5705 5706 5708 5710 5712 5714 5717 5720 5722 5725 5728
5789 5785 5781 5778 5774 5770 5767 5763 5759 5756 5752 5748 5744 5740 5737 5733 5729 5725 5722 5719 5716 5713 5710 5708 5706 5704 5702 5701 5699 5699 5698 5699 5699 5700 5701 5703 5704 5707 5709 5711 5714 5716 5718
5785 5781 5777 5773 5769 5766 5762 5759 5755 5752 5749 5745 5741 5738 5734 5730 5727 5723 5720 5717 5714 5711 5708 5706 5703 5701 5700 5698 5696 5695 5694 5694 5694 5694 5695 5697 5698 5699 5701 5703 5705 5707 5709
5780 5776 5772 5768 5765 5761 5758 5754 5751 5748 5745 5741 5738 5735 5731 5727 5724 5721 5717 5714 5711 5708 5705 5703 5700 5698 5696 5695 5693 5692 5690 5690 5689 5689 5690 5690 5691 5692 5693 5695 5696 5698 5700
5775 5771 5767 5764 5760 5756 5753 5749 5746 5743 5740 5737 5734 5731 5727 5724 5720 5717 5714 5711 5708 5705 5702 5699 5697 5695 5693 5691 5689 5688 5686 5685 5685 5684 5684 5684 5685 5685 5686 5687 5688 5690 5691
5769 5766 5762 5758 5755 5751 5747 5744 5741 5738 5735 5732 5729 5726 5723 5720 5716 5713 5710 5707 5703 5700 5697 5695 5693 5690 5688 5686 5685 5683 5682 5680 5679 5679 5678 5678 5678 5679 5679 5680 5681 5682 5683
5763 5759 5755 5752 5748 5745 5741 5738 5735 5732 5729 5726 5723 5720 5717 5714 5711 5708 5705 5702 5699 5696 5693 5690 5687 5685 5683 5681 5679 5678 5676 5675 5674 5673 5672 5672 5672 5672 5672 5673 5673 5674 5675
5756 5752 5748 5745 5742 5739 5735 5732 5728 5725 5722 5719 5716 5713 5711 5708 5705 5702 5699 5696 5693 5690 5687 5684 5682 5679 5677 5675 5673 5671 5670 5668 5667 5666 5666 5665 5664 5664 5664 5664 5665 5665 5666
5748 5744 5741 5738 5734 5731 5729 5726 5722 5719 5715 5712 5709 5706 5703 5700 5697 5695 5692 5688 5686 5683 5680 5677 5674 5671 5669 5667 5665 5664 5662 5661 5659 5658 5658 5657 5656 5656 5656 5656 5656 5657 5657
5739 5736 5733 5730 5727 5724 5721 5718 5715 5712 5709 5705 5702 5699 5695 5692 5689 5686 5683 5680 5677 5674 5671 5668 5665 5663 5660 5658 5656 5654 5653 5652 5650 5649 5649 5648 5648 5648 5648 5648 5648 5648 5648
5731 5727 5724 5721 5718 5715 5712 5709 5706 5703 5700 5697 5694 5691 5687 5684 5680 5677 5674 5670 5667 5664 5661 5658 5655 5652 5650 5647 5646 5644 5642 5641 5640 5639 5638 5638 5638 5638 5638 5638 5639 5639 5639
5721 5718 5715 5712 5709 5706 5703 5700 5697 5694 5691 5688 5684 5681 5678 5675 5671 5667 5664 5660 5656 5653 5649 5646 5643 5640 5637 5635 5633 5631 5630 5629 5628 5627 5627 5627 5627 5627 5627 5628 5628 5629 5630
5711 5708 5705 5702 5699 5696 5693 5690 5687 5684 5681 5677 5674 5670 5667 5663 5659 5656 5652 5648 5644 5640 5636 5633 5629 5626 5623 5621 5619 5617 5616 5615 5614 5613 5614 5614 5614 5615 5615 5616 5617 5618 5619
5700 5697 5695 5692 5689 5685 5682 5679 5676 5673 5670 5666 5662 5658 5654 5650 5646 5642 5638 5634 5630 5626 5622 5618 5615 5611 5608 5605 5603 5601 5599 5599 5598 5598 5598 5599 5600 5601 5602 5603 5605 5606 5608
5689 5686 5684 5681 5678 5674 5671 5668 5665 5661 5658 5654 5650 5646 5642 5637 5633 5628 5624 5619 5615 5610 5606 5602 5598 5594 5590 5587 5584 5582 5580 5579 5579 5579 5580 5582 5583 5585 5587 5589 5591 5593 5595
5677 5675 5672 5669 5666 5663 5660 5656 5653 5649 5645 5641 5637 5633 5628 5624 5619 5614 5608 5603 5598 5593 5588 5583 5579 5574 5570 5567 5564 5561 5559 5558 5558 5558 5559 5561 5564 5566 5569 5572 5575 5578 5580
5665 5662 5660 5657 5654 5651 5648 5644 5640 5637 5633 5628 5623 5619 5614 5609 5603 5598 5592 5586 5580 5574 5569 5563 5557 5552 5548 5544 5541 5538 5536 5535 5535 5535 5537 5539 5542 5545 5549 5553 5557 5560 5564